Flag for U.S.A. Weather past 2 weeks in Inglewood, California, U.S.A.

Now
68 °F

Sunny.


Feels Like: 68 °F
Forecast: 59 / 71 °F
Wind: 10 mph from West

Location: Hawthorne Municipal Airport

Current Time: May 27, 2015 at 3:55:41 PM

Latest Report: May 27, 2015 at 2:53 PM


Visibility: 10 mi

Pressure: 29.97 "Hg

Humidity: 59%

Dew point: 53 °F

Location of InglewoodLocation

Historic Weather in Inglewood — Graph

°F

Inglewood temperature yesterday

Maximum temperature yesterday: 68 °F (at 1:53 PM)
Minimum temperature yesterday: 60 °F (at 10:53 PM)
Average temperature yesterday: 63 °F

Past Weeks' High & Low Weather Summary

 TemperatureHumidityPressure
High70 °F (May 16, 3:53 PM)84% (May 14, 1:53 PM)30.09 "Hg (May 14, 1:53 PM)
Low56 °F (May 15, 6:53 AM)39% (May 12, 3:53 PM)29.84 "Hg (May 15, 6:53 PM)
Average63 °F67%29.98 "Hg
* Reported May 12 3:04 PM — May 27 2:53 PM, Inglewood, Weather by CustomWeather, © 2015

Note: Actual official high and low records may vary slightly from our data, if they occured in-between our weather recording intervals... More about our weather records

Advertising

Inglewood weather history for previous 24 hours

 ConditionsComfort  
Time TempWeatherWind HumidityBarometerVisibility
2:53 PM
Wed, May 27
68 °FSunny.10 mph59%29.97 "Hg10 mi
1:53 PM68 °FSunny.7 mph59%29.98 "Hg10 mi
12:53 PM69 °FScattered clouds.9 mph57%30.00 "Hg10 mi
11:53 AM67 °FOvercast.7 mph63%30.00 "Hg10 mi
10:53 AM65 °FOvercast.5 mph66%30.00 "Hg10 mi
9:53 AM63 °FOvercast.8 mph70%30.01 "Hg10 mi
8:53 AM62 °FOvercast.7 mph73%30.01 "Hg10 mi
7:53 AM62 °FOvercast.5 mph73%30.00 "Hg10 mi
6:53 AM62 °FOvercast.3 mph73%29.99 "Hg10 mi
5:53 AM61 °FOvercast.No wind75%29.98 "Hg10 mi
4:53 AM62 °FOvercast.No wind73%29.97 "Hg10 mi
3:53 AM61 °FOvercast.5 mph75%29.98 "Hg10 mi
2:53 AM61 °FOvercast.5 mph78%29.99 "Hg10 mi
1:53 AM62 °FOvercast.No wind75%29.99 "Hg10 mi
12:53 AM61 °FOvercast.No wind75%30.00 "Hg10 mi
11:53 PM
Tue, May 26
61 °FOvercast.5 mph78%30.00 "Hg10 mi
10:53 PM60 °FPassing clouds.5 mph80%30.00 "Hg10 mi
9:53 PM61 °FOvercast.No wind78%29.99 "Hg10 mi
8:53 PM61 °FOvercast.6 mph78%29.99 "Hg10 mi
7:53 PM62 °FOvercast.9 mph75%29.98 "Hg10 mi
6:53 PM63 °FOvercast.10 mph73%29.97 "Hg10 mi
5:53 PM64 °FOvercast.10 mph73%29.96 "Hg10 mi
4:53 PM65 °FOvercast.14 mph70%29.96 "Hg10 mi
3:53 PM67 °FPartly sunny.12 mph66%29.97 "Hg10 mi
Weather by CustomWeather, © 2015

See weather overviewHow to use our weather pages